TIME,DELAY(SENSOR),PRES,OXYGEN,RAWTEMP,T(OPTODE),TCPHASE,FLUOR,BETA(BETA700),BETA(BETA412),BETA(BETA440),CDOM,C(CSC),ED(ED412.40),ED(ED444.00),ED(ED489.70),ED(ED554.30),LU(LU411.80),LU(LU443.40),LU(LU489.60),LU(LU554.10),COMP,TILTX,TILTY,CHECK
1336879399,5806,891.2800292968750000,43.8078498840332000,663.4044189453125000,4.5158309936523440,54.4686203002929700,53,103,89,79,83,15261,2147758985,2147423378,2148004260,2147876461,2147639533,2147068242,2148259072,2147200420,1609,4,14,50180
1336882995,5806,966.6300048828125000,46.6138000488281250,670.9384155273438000,4.2671952247619630,54.1594085693359400,52,101,89,79,84,15261,2147758976,2147422171,2148008429,2147873353,2147641910,2147061485,2148263204,2147199003,886,4,13,33402
1336886595,5809,989.4699707031250000,47.0094604492187500,672.5148925781250000,4.2150859832763670,54.1198997497558600,53,106,88,80,84,15258,2147761828,2147419931,2148005686,2147877430,2147641545,2147061869,2148260461,2147202276,3033,4,13,64231
1336890195,5808,997.0999755859375000,46.8764915466308600,672.4030761718750000,4.2187819480896000,54.1358184814453100,53,101,88,81,84,15257,2147761718,2147418422,2148005668,2147876772,2147642532,2147061266,2148259337,2147205101,176,4,13,17587
1336893795,5808,997.5800170898438000,46.6697387695312500,671.9044799804688000,4.2352638244628910,54.1627388000488300,52,100,90,79,84,15255,2147765366,2147422400,2148007433,2147876105,2147641142,2147057636,2148262445,2147197952,112,4,13,11429
1336897395,5808,1009.7399902343750000,46.6789817810058600,672.4002075195312000,4.2188758850097660,54.1628799438476560,53,102,89,79,83,15255,2147762660,2147421476,2148006144,2147874678,2147642733,2147063177,2148261668,2147202788,592,4,13,16501
1336900995,5809,1013.0200195312500000,46.3491783142089840,672.3640747070312000,4.2200698852539060,54.2128791809082000,52,99,87,79,83,15250,2147759506,2147421110,2148007542,2147878381,2147643300,2147062098,2148264521,2147201261,170,4,13,57890
1336904595,5809,1003.3400268554688000,46.2584190368652340,672.1561889648438000,4.2269439697265625,54.2239494323730500,52,99,90,82,83,15249,2147763483,2147420708,2148005202,2147878985,2147640722,2147064612,2148256905,2147202185,305,4,13,21844
1336908195,5807,997.7399902343750000,46.8733787536621100,673.9730834960938000,4.1668610572814940,54.1594505310058600,53,100,90,80,83,15249,2147762194,2147420562,2148004425,2147877997,2147643803,2147058605,2148260736,2147196416,337,4,13,39361
1336911795,5813,1001.1500244140625000,47.3399696350097660,674.6353149414062000,4.1449551582336430,54.0967712402343750,52,99,88,79,84,15255,2147757769,2147420827,2148007826,2147876278,2147642861,2147061229,2148257709,2147198601,95,5,13,8557
1336915395,5808,1007.4699707031250000,46.7868003845214840,672.9298095703125000,4.2013659477233890,54.1546592712402340,53,105,89,79,83,15252,2147764388,2147423579,2148004461,2147874221,2147644406,2147065280,2148262619,2147203318,292,4,13,51650
1336918995,5809,1004.9000244140625000,46.2074584960937500,673.2589111328125000,4.1904830932617190,54.2460098266601560,53,100,87,80,83,15252,2147760292,2147420608,2148004891,2147876662,2147643465,2147064630,2148257024,2147199442,138,4,13,64508
1336922595,5809,1005.7100219726562000,47.4112396240234400,674.6702880859375000,4.1437950134277340,54.0915603637695300,53,110,89,80,84,15118,2147762203,2147418614,2148006811,2147877440,2147642221,2147064201,2148261997,2147199881,315,4,13,20947
1336926195,5809,1011.7100219726562000,46.7419815063476560,673.3883056640625000,4.1862030029296875,54.1673088073730500,53,100,89,79,83,15118,2147763035,2147419501,2148006454,2147875776,2147644470,2147063616,2148259474,2147200073,3281,4,13,59845
1336929795,5810,1019.9099731445312000,46.4228210449218750,672.1378784179688000,4.2275471687316895,54.2007217407226560,53,100,89,78,83,15116,2147759716,2147420973,2148008301,2147877531,2147640777,2147061202,2148261549,2147202249,3167,4,13,41386
1336933395,5809,1007.9199829101562000,46.0639190673828100,672.6210937500000000,4.2115750312805180,54.2524604797363300,53,98,89,79,83,15100,2147760365,2147422299,2148007826,2147877019,2147643620,2147063204,2148264228,2147197458,482,4,13,21082
1336936995,5808,1013.2800292968750000,46.4970703125000000,673.4285888671875000,4.1848697662353520,54.2015304565429700,53,100,85,80,84,15114,2147760749,2147419730,2148009600,2147876260,2147643291,2147059163,2148258806,2147202176,79,4,13,19916
1336940595,5809,1012.2800292968750000,46.0868110656738300,673.5659179687500000,4.1803297996521000,54.2608413696289060,53,101,89,79,83,15116,2147760996,2147420763,2148009938,2147873728,2147643382,2147060416,2148263067,2147202276,348,4,13,38847
1336944195,5806,1013.0499877929688000,46.6417999267578100,673.5847167968750000,4.1797080039978030,54.1847000122070300,53,102,88,79,83,15112,2147760091,2147419017,2148005412,2147877878,2147641142,2147063040,2148260187,2147201307,262,4,13,8336
1336947795,5810,1007.7399902343750000,46.7176818847656250,673.6002197265625000,4.1791949272155760,54.1773490905761700,53,101,91,79,84,15114,2147760923,2147424182,2148005705,2147875328,2147643273,2147059885,2148261257,2147202761,326,4,13,16856
1336951395,5811,1006.7999877929688000,46.7269706726074200,674.0905761718750000,4.1629729270935060,54.1816482543945300,53,98,89,79,84,15114,2147764370,2147422811,2148007451,2147873846,2147641170,2147063945,2148253513,2147202294,75,4,13,16414
1336954995,5806,1008.3599853515625000,47.0507202148437500,675.0250854492188000,4.1320571899414060,54.1473617553710940,52,98,88,79,84,15114,2147761389,2147421220,2148005412,2147876086,2147642889,2147063332,2148261787,2147201298,3378,4,13,17792
1336958595,5809,1009.1300048828125000,47.3037986755371100,675.1409912109375000,4.1282200813293460,54.1095581054687500,51,100,89,79,84,15116,2147763181,2147423817,2148007826,2147878290,2147644032,2147064630,2148264877,2147202578,23,4,13,49430
1336962195,5806,1009.5399780273438000,47.6596412658691400,675.1199951171875000,4.1289157867431640,54.0627593994140600,53,104,87,79,84,15101,2147758665,2147422848,2148004452,2147876233,2147645568,2147066624,2148261942,2147197970,3566,4,13,37949
1336965795,5808,1009.7800292968750000,47.6380310058593750,675.0803833007812000,4.1302261352539060,54.0637397766113300,52,103,85,80,83,15097,2147759286,2147424841,2148004589,2147875044,2147645732,2147058395,2148267501,2147201600,3500,4,13,55615
1336969395,5806,1013.6300048828125000,47.3631286621093750,675.0618286132812000,4.1308422088623050,54.1012611389160160,52,100,89,80,84,15099,2147760100,2147423506,2148006464,2147876361,2147644425,2147064877,2148258404,2147198820,7,5,13,17009
1336972995,5809,1019.4299926757812000,47.3040618896484400,674.4445190429688000,4.1512680053710940,54.1015586853027340,53,100,89,80,83,15098,2147761380,2147425170,2148008329,2147873682,2147646180,2147061650,2148258313,2147200621,3558,4,14,58591
1336976595,5808,1016.5100097656250000,46.5654907226562500,673.6290893554688000,4.1782398223876950,54.1959190368652340,52,98,87,80,84,15097,2147757632,2147422518,2148007341,2147874669,2147644004,2147061933,2148260315,2147200832,3582,4,14,34305
1336980195,5808,1018.0700073242188000,46.3142509460449200,674.4353027343750000,4.1515707969665530,54.2394714355468750,52,100,85,79,83,15099,2147761636,2147421376,2148004105,2147877659,2147645924,2147059456,2148262445,2147205458,154,4,14,13821
1336983795,5805,1024.3599853515625000,46.7361793518066400,674.0153808593750000,4.1654620170593260,54.1760292053222660,53,99,90,79,84,15095,2147760850,2147423981,2148005750,2147874505,2147642468,2147059483,2148261769,2147201325,3450,4,13,26453
1336987395,5808,1022.0100097656250000,46.1127700805664060,672.3218994140625000,4.2214660644531250,54.2463798522949200,52,100,88,80,83,15098,2147761673,2147422272,2148006674,2147875803,2147644425,2147071104,2148263716,2147200768,264,4,13,31541
1336990995,5808,1021.0900268554688000,46.5579185485839840,673.1215209960938000,4.1950259208679200,54.1907882690429700,53,100,85,81,84,15095,2147761206,2147422025,2148005366,2147875638,2147642962,2147062912,2148263881,2147200484,3323,4,13,12340
1336994595,5806,1011.6099853515625000,46.2352981567382800,673.9494018554688000,4.1676449775695800,54.2459411621093750,52,99,90,78,83,15091,2147757851,2147421924,2148007460,2147874404,2147643254,2147070720,2148254070,2147201993,1349,4,13,60369
1336998195,5808,1011.5300292968750000,46.3553810119628900,673.8986816406250000,4.1693210601806640,54.2320594787597660,52,100,87,79,83,15092,2147761782,2147423241,2148006400,2147876388,2147644525,2147065261,2148263542,2147200329,218,4,13,14654
1337001795,5807,1013.0900268554688000,46.4890403747558600,674.3781127929688000,4.1534647941589355,54.2136192321777340,53,101,87,79,83,15085,2147762075,2147422637,2148008356,2147878290,2147644836,2147067675,2148258633,2147199533,3570,4,13,51713
1337005395,5809,1016.3200073242188000,47.1244010925293000,674.7083129882812000,4.1425380706787110,54.1309509277343750,52,99,87,78,82,15087,2147762294,2147421065,2148006820,2147874550,2147641152,2147062710,2148261586,2147197321,3473,4,13,12122
1337008995,5811,1014.6199951171875000,46.6464614868164060,674.4816284179688000,4.1500401496887210,54.1986198425293000,53,102,88,80,85,15084,2147760822,2147423524,2148007789,2147876416,2147643593,2147058971,2148257097,2147198765,93,5,13,43564
1337012595,5807,1016.6799926757812000,45.6848182678222660,674.5214843750000000,4.1487178802490230,54.3334503173828100,53,97,90,79,82,15085,2147759241,2147416731,2148004891,2147876708,2147641554,2147058029,2148258157,2147201298,136,4,13,19464
1337016195,5810,1029.4799804687500000,47.4912414550781250,674.5380859375000000,4.1481699943542480,54.0791282653808600,53,101,91,81,83,15087,2147758848,2147425673,2148005961,2147876132,2147643364,2147063149,2148259328,2147200758,3295,4,13,15182
1337019795,5808,1028.7600097656250000,46.4793395996093750,672.6936035156250000,4.2091770172119140,54.1981697082519500,53,99,91,80,84,15080,2147760841,2147422921,2148007369,2147875858,2147640557,2147068955,2148262948,2147200237,3516,4,13,40330
1337023395,5808,1024.5999755859375000,46.1804809570312500,672.7061767578125000,4.2087588310241700,54.2362594604492200,53,100,88,79,83,15082,2147762797,2147423990,2148008448,2147877284,2147642130,2147061302,2148256365,2147201051,136,4,13,58595
1337024456,5811,1024.9399414062500000,45.7199401855468750,672.7072753906250000,4.2087230682373050,54.3026390075683600,53,101,88,79,83,15250,2147757485,2147421449,2148007131,2147876845,2147644937,2147060672,2148258578,2147199670,3549,4,13,57827
